Regional Weather Roundup
Issued by NWS Boston, MA

Home | Current Version | Previous Version | Text Only | Print | Product List | Glossary On
Versions: 1 2 3 4 5 6 7 8 9 10 11 12 13 14 15 16 17 18 19 20 21 22 23 24 25 26 27
000
ASUS41 KBOX 011710
RWRBOX

REGIONAL WEATHER ROUNDUP
NATIONAL WEATHER SERVICE TAUNTON MA
100 PM EDT SAT OCT 01 2016

NOTE:  "FAIR" INDICATES FEW OR NO CLOUDS BELOW 12,000 FEET WITH NO
SIGNIFICANT WEATHER AND/OR OBSTRUCTIONS TO VISIBILITY.

MAZALL-011800-
EASTERN MASSACHUSETTS

CITY           SKY/WX    TMP DP  RH WIND       PRES   REMARKS
BOSTON         DRIZZLE   58  58 100 NE16      30.26F FOG
BEVERLY        LGT RAIN  58  58 100 NE14      30.27F FOG
LAWRENCE       LGT RAIN  54  53  97 N13       30.32F FOG
BEDFORD        CLOUDY    54  53  97 N10       30.27F FOG
BLUE HILL        N/A     55  55 100 NE13G30   30.24F
NORWOOD        LGT RAIN  59  57  93 NE8       30.25F FOG
MARSHFIELD     LGT RAIN  61  61 100 NE10G20   30.23F VSB 1
PLYMOUTH       LGT RAIN  60  58  92 NE13G26   30.22F FOG
TAUNTON        LGT RAIN  61  59  93 NE9       30.21F FOG
NEW BEDFORD    CLOUDY    62  60  93 NE12      30.18F FOG
$$

MAZALL-011800-
CAPE COD AND THE ISLANDS

CITY           SKY/WX    TMP DP  RH WIND       PRES   REMARKS
FALMOUTH       LGT RAIN  61  61 100 NE20G26   30.22S VSB 1
HYANNIS        LGT RAIN  62  61  96 NE10      30.17F FOG
CHATHAM        LGT RAIN N/A N/A N/A NE14G22   30.18F VSB 1
PROVINCETOWN   HVY RAIN  59  59 100 NE16      30.22F FOG
NANTUCKET      CLOUDY    64  63  96 E15       30.13F FOG
MARTHAS VNYRD  LGT RAIN  63  62  97 NE17G25   30.16F VSB 1
$$

MAZALL-011800-
CENTRAL AND WESTERN MASSACHUSETTS

CITY           SKY/WX    TMP DP  RH WIND       PRES   REMARKS
WORCESTER      FOG       51  50  96 NE13G22   30.26F VSB 1
FITCHBURG      LGT RAIN  54  50  86 NE9       30.30F FOG
ORANGE         CLOUDY    53  53 100 N6        30.29F
SPRINGFIELD    DRIZZLE   54  52  94 N10       30.25F FOG
WESTFIELD      CLOUDY    53  52  96 N14       30.27F FOG
NORTH ADAMS    CLOUDY    57  48  72 E12       30.26F
PITTSFIELD     CLOUDY    54  48  80 NE9       30.25F
$$

RIZALL-011800-
RHODE ISLAND

CITY           SKY/WX    TMP DP  RH WIND       PRES   REMARKS
PROVIDENCE     CLOUDY    61  58  90 N13       30.22F FOG
NEWPORT        CLOUDY    62  60  93 NE13      30.19F FOG
BLOCK ISLAND   CLOUDY    61  60  97 NE16G23   30.18F FOG
SMITHFIELD     LGT RAIN  58  57  97 NE12G20   30.24F FOG
WESTERLY       CLOUDY    64  57  78 N13G21    30.19F
$$

CTZALL-011800-
CONNECTICUT

CITY           SKY/WX    TMP DP  RH WIND       PRES   REMARKS
BRADLEY INTL   DRIZZLE   54  52  93 N10       30.26F FOG
HARTFORD       CLOUDY    54  53  97 N10       30.24F FOG
BRIDGEPORT     CLOUDY    61  53  75 NE14      30.21F
DANBURY        CLOUDY    56  54  93 NE9G17    30.24F FOG
GROTON         CLOUDY    65  59  81 NE14G24   30.17F
NEW HAVEN      CLOUDY    57  53  86 N13       30.21F
CHESTER        CLOUDY    59  57  94 N8        30.21F
MERIDEN        CLOUDY    56  52  86 N7        30.24S
WILLIMANTIC    CLOUDY    60  56  86 NE12      30.23F
OXFORD         CLOUDY    55  50  82 NE14G21   30.23F
$$

MEZ002-015-021-024-NHZ003-005-008-011-012-014-VTZ005-008-011800-
NORTHERN NEW ENGLAND

CITY           SKY/WX    TMP DP  RH WIND       PRES   REMARKS
PORTLAND ME    LGT RAIN  57  50  77 NE10      30.34F
BANGOR ME      CLOUDY    60  47  61 NE6       30.37F
CONCORD NH     CLOUDY    56  46  69 NE6       30.33S
MANCHESTER NH  DRIZZLE   54  47  77 N12       30.30F
NASHUA NH      LGT RAIN  52  50  93 N7        30.31F FOG
PORTSMOUTH NH  CLOUDY    56  51  84 NE10      30.30F
JAFFREY NH     CLOUDY    50  47  89 N5        30.31F FOG
KEENE NH       CLOUDY    54  48  80 NE7       30.30F
BURLINGTON VT  CLOUDY    60  45  57 CALM      30.29F
MT. WASHINGTON LGT RAIN  46  43  87 SE14        N/A
$$

NYZ052-076-011800-
EASTERN NEW YORK

CITY           SKY/WX    TMP DP  RH WIND       PRES   REMARKS
ALBANY         CLOUDY    57  50  77 CALM      30.27F
NEW YORK CITY  CLOUDY    63  57  81 NE16      30.20F
$$

ANZALL-011800-
MARINE OBSERVATIONS

STATION/POSITION TIME  TEMP    WIND        PRES    VSBY  WAVE
                       AIR SEA DIR/SP/G                  HT/PER
                 (UTC) (F)     (DEG/KT/KT) (MB)    (MI)  (FT/S)
BOSTON BUOY      1650   59 61   50/ 19/ 23 1023.7F         7/ 8
BUZZARDS BAY     1700   60      30/ 27/ 30 1021.2F
NANTUCKET SOUND  1650   61 63   40/ 17/ 19 1020.4F         3/ 4
MASS BAY-STELLWA 1604   59 60   50/ 17/ 21 1024.6F  1 3/8
ISLE OF SHOALS   1700   56      40/ 17/ 20 1025.4F
S OF BLOCK IS    1655      64                N/A           7/ 8
$$

......................KEY.........................
  SKY/WX - SKY CONDITION/PRESENT WEATHER
  TMP    - TEMPERATURE IN FAHRENHEIT
  DWPT   - DEWPOINT IN FAHRENHEIT
  RH     - RELATIVE HUMIDITY IN PERCENT
  WIND   - DIRECTION AND SPEED IN MPH
  PRES   - MEAN SEA LEVEL PRESSURE IN INCHES OF HG
  WCI    - WIND CHILL INDEX
  VSB    - VISIBILITY IN MILES
  HX     - HEAT INDEX
  TC     - TEMPERATURE IN CELSIUS
  VRB    - VARIABLE WIND DIRECTION
  N/A    - NOT AVAILABLE




USA.gov is the U.S. government's official web portal to all federal, state and local government web resources and services.